TimeMST,TemperatureF,Dew PointF,Humidity,Sea Level PressureIn,VisibilityMPH,Wind Direction,Wind SpeedMPH,Gust SpeedMPH,PrecipitationIn,Events,Conditions,WindDirDegrees,DateUTC
12:40 AM,28.4,21.2,74,30.01,10.0,West,28.8,38.0,N/A,,Mostly Cloudy,260,2013-01-31 07:40:00
12:54 AM,28.0,21.0,75,30.08,10.0,West,29.9,36.8,N/A,,Scattered Clouds,270,2013-01-31 07:54:00
1:54 AM,27.0,21.0,78,30.08,10.0,West,29.9,36.8,N/A,,Partly Cloudy,260,2013-01-31 08:54:00
2:54 AM,27.0,19.9,75,30.12,10.0,WSW,25.3,32.2,N/A,,Scattered Clouds,250,2013-01-31 09:54:00
3:54 AM,26.1,19.9,78,30.13,10.0,WSW,23.0,28.8,N/A,,Clear,250,2013-01-31 10:54:00
4:54 AM,27.0,19.9,75,30.17,10.0,WSW,25.3,36.8,N/A,,Overcast,250,2013-01-31 11:54:00
5:35 AM,26.6,19.4,74,30.10,10.0,WSW,24.2,-,N/A,,Overcast,250,2013-01-31 12:35:00
5:54 AM,27.0,19.9,75,30.20,10.0,WSW,23.0,29.9,N/A,,Overcast,250,2013-01-31 12:54:00
6:23 AM,26.6,19.4,74,30.12,10.0,WSW,25.3,32.2,N/A,,Mostly Cloudy,250,2013-01-31 13:23:00
6:54 AM,26.1,19.9,78,30.22,10.0,WSW,24.2,33.4,N/A,,Mostly Cloudy,250,2013-01-31 13:54:00
7:54 AM,26.1,19.0,75,30.24,10.0,WSW,18.4,-,N/A,,Clear,250,2013-01-31 14:54:00
8:54 AM,28.0,19.9,72,30.25,10.0,WSW,23.0,-,N/A,,Partly Cloudy,250,2013-01-31 15:54:00
9:54 AM,30.9,21.0,67,30.26,10.0,West,31.1,36.8,N/A,,Clear,270,2013-01-31 16:54:00
10:54 AM,-9999,-9999,N/A,30.20,-9999.0,North,-9999.0,-,N/A,,Unknown,0,2013-01-31 17:54:00
11:54 AM,-9999,-9999,N/A,30.19,10.0,WSW,29.9,38.0,N/A,,Overcast,250,2013-01-31 18:54:00
12:02 PM,33.8,21.2,60,30.19,10.0,West,27.6,35.7,N/A,,Overcast,260,2013-01-31 19:02:00
12:18 PM,33.8,21.2,60,30.18,10.0,West,27.6,36.8,N/A,,Overcast,260,2013-01-31 19:18:00
12:54 PM,33.1,21.0,61,30.23,10.0,West,27.6,35.7,N/A,,Overcast,260,2013-01-31 19:54:00
1:18 PM,33.8,21.2,60,30.17,10.0,West,27.6,35.7,N/A,,Overcast,260,2013-01-31 20:18:00
1:54 PM,34.0,21.0,59,30.22,10.0,West,27.6,-,N/A,,Overcast,260,2013-01-31 20:54:00
2:54 PM,33.1,19.9,59,30.23,10.0,West,28.8,36.8,N/A,,Overcast,270,2013-01-31 21:54:00
3:54 PM,33.1,21.0,61,30.24,10.0,West,24.2,31.1,N/A,,Scattered Clouds,270,2013-01-31 22:54:00
5:54 PM,30.0,21.9,72,30.26,10.0,West,24.2,-,N/A,,Overcast,260,2013-02-01 00:54:00
6:54 PM,30.0,21.9,72,30.28,10.0,West,21.9,-,N/A,,Overcast,260,2013-02-01 01:54:00
7:54 PM,28.9,21.9,75,30.29,10.0,WSW,17.3,-,N/A,,Overcast,250,2013-02-01 02:54:00
8:54 PM,28.9,21.9,75,30.27,10.0,WSW,20.7,-,N/A,,Overcast,250,2013-02-01 03:54:00
9:54 PM,30.0,21.9,72,30.24,10.0,WSW,19.6,-,N/A,,Overcast,250,2013-02-01 04:54:00
11:54 PM,30.0,23.0,75,30.18,10.0,West,23.0,-,N/A,,Overcast,260,2013-02-01 06:54:00